Weather History for KRYV - November, 2013

Change the Weather History Date:

Monday, November 4, 2013

  Actual Average Record
Temperature  
Mean Temperature 48 °F -  
Max Temperature 54 °F 48 °F 73 °F (1987)
Min Temperature 41 °F 32 °F 8 °F (1951)
Degree Days  
Heating Degree Days 18    
Moisture  
Dew Point 39 °F    
Average Humidity 70    
Maximum Humidity 82    
Minimum Humidity 58    
Precipitation  
Precipitation 0.00 in - - ()
Sea Level Pressure  
Sea Level Pressure 30.13 in    
Wind  
Wind Speed 11 mph (South)    
Max Wind Speed 18 mph    
Max Gust Speed 26 mph    
Visibility 10 miles    
Events      
Averages and records for this station are not official NWS values.
T = Trace of Precipitation, MM = Missing Value Source: NWS Daily Summary

Daily Weather History Graph

Daily Weather History Graph

Search for Another Location

Airport or City:

Trip Planner

Search our weather history database for the weather conditions in past years. The results will help you decide how hot, cold, wet, or windy it might be!

Date:

Astronomy

Nov. 04, 2013 Rise Set
Actual Time 6:33 AM CST 4:42 PM CST
Civil Twilight 6:04 AM CST 5:12 PM CST
Nautical Twilight 5:30 AM CST 5:46 PM CST
Astronomical Twilight 4:57 AM CST 6:19 PM CST
Moon 7:45 AM CST (11/4) 5:45 PM CST (11/4)
Length of Visible Light 11h 08m
Length of Day
10h 08m
New Moon, 2% of the Moon is Illuminated
Nov 4
New Moon
Nov 9
First Quarter
Nov 17
Full
Nov 25
Last Quarter
Dec 2
New

Hourly Weather History & Observations

Time (CST) Temp. Windchill Dew Point Humidity Pressure Visibility Wind Dir Wind Speed Gust Speed Precip Events Conditions
12:15 AM 42.8 °F 37.5 °F 37.4 °F 81% 30.22 in 10.0 mi SE 9.2 mph 16.1 mph N/A   Clear
12:55 AM 42.3 °F 35.9 °F 36.9 °F 81% 30.21 in 10.0 mi SSE 11.5 mph - N/A   Clear
1:15 AM 42.1 °F 36.1 °F 36.7 °F 81% 30.21 in 10.0 mi SE 10.4 mph - N/A   Clear
1:35 AM 41.5 °F 36.4 °F 36.5 °F 82% 30.21 in 10.0 mi SE 8.1 mph - N/A   Clear
1:55 AM 41.2 °F 36.0 °F 36.1 °F 82% 30.21 in 10.0 mi SE 8.1 mph - N/A   Clear
2:15 AM 41.9 °F 36.3 °F 35.8 °F 79% 30.21 in 10.0 mi SE 9.2 mph - N/A   Clear
2:35 AM 41.9 °F 36.3 °F 36.1 °F 80% 30.21 in 10.0 mi SE 9.2 mph 16.1 mph N/A   Clear
2:55 AM 42.1 °F 36.6 °F 36.5 °F 81% 30.20 in 10.0 mi SE 9.2 mph 16.1 mph N/A   Clear
3:15 AM 42.4 °F 36.5 °F 36.0 °F 78% 30.20 in 10.0 mi SE 10.4 mph 18.4 mph N/A   Clear
3:35 AM 42.3 °F 35.9 °F 35.8 °F 78% 30.20 in 10.0 mi SE 11.5 mph 17.3 mph N/A   Clear
3:55 AM 42.6 °F 35.9 °F 35.6 °F 76% 30.19 in 10.0 mi SE 12.7 mph 17.3 mph N/A   Clear
4:15 AM 42.8 °F 36.2 °F 35.6 °F 76% 30.18 in 10.0 mi SE 12.7 mph 21.9 mph N/A   Clear
4:35 AM 43.0 °F 36.8 °F 35.2 °F 74% 30.19 in 10.0 mi SE 11.5 mph 17.3 mph N/A   Clear
4:55 AM 43.0 °F 36.8 °F 35.2 °F 74% 30.18 in 10.0 mi SSE 11.5 mph 19.6 mph N/A   Scattered Clouds
5:15 AM 42.8 °F 37.0 °F 35.4 °F 75% 30.16 in 10.0 mi SE 10.4 mph 18.4 mph N/A   Scattered Clouds
5:35 AM 43.0 °F 36.8 °F 35.4 °F 75% 30.16 in 10.0 mi SE 11.5 mph - N/A   Clear
5:55 AM 43.2 °F 37.0 °F 35.2 °F 74% 30.16 in 10.0 mi SSE 11.5 mph 16.1 mph N/A   Clear
6:15 AM 43.2 °F 37.4 °F 35.2 °F 74% 30.15 in 10.0 mi SSE 10.4 mph - N/A   Clear
6:35 AM 43.3 °F 38.1 °F 35.2 °F 73% 30.15 in 10.0 mi SSE 9.2 mph 16.1 mph N/A   Clear
6:55 AM 43.5 °F 38.3 °F 35.1 °F 72% 30.16 in 10.0 mi SSE 9.2 mph 17.3 mph N/A   Clear
7:15 AM 43.7 °F 36.9 °F 35.1 °F 72% 30.16 in 10.0 mi SSE 13.8 mph 19.6 mph N/A   Clear
7:35 AM 43.7 °F 36.9 °F 35.2 °F 72% 30.15 in 10.0 mi SSE 13.8 mph 21.9 mph N/A   Clear
7:55 AM 43.9 °F 37.2 °F 35.6 °F 73% 30.15 in 10.0 mi SSE 13.8 mph 19.6 mph N/A   Clear
8:15 AM 44.2 °F 38.4 °F 35.8 °F 72% 30.15 in 10.0 mi SSE 11.5 mph - N/A   Clear
8:35 AM 45.0 °F 38.9 °F 36.0 °F 71% 30.15 in 10.0 mi SSE 12.7 mph 21.9 mph N/A   Clear
8:55 AM 45.1 °F 39.9 °F 36.0 °F 70% 30.14 in 10.0 mi SSE 10.4 mph 20.7 mph N/A   Clear
9:15 AM 46.0 °F 39.9 °F 36.5 °F 69% 30.14 in 10.0 mi SSE 13.8 mph 17.3 mph N/A   Clear
9:35 AM 46.4 °F 40.4 °F 36.5 °F 68% 30.13 in 10.0 mi SSE 13.8 mph 19.6 mph N/A   Clear
9:55 AM 47.3 °F - 36.5 °F 66% 30.13 in 10.0 mi SSE 13.8 mph 20.7 mph N/A   Clear
10:15 AM 48.2 °F - 36.9 °F 65% 30.13 in 10.0 mi SSE 12.7 mph 18.4 mph N/A   Clear
10:35 AM 49.1 °F - 37.2 °F 64% 30.12 in 10.0 mi SSE 17.3 mph 21.9 mph N/A   Clear
10:55 AM 49.5 °F - 36.5 °F 61% 30.11 in 10.0 mi South 12.7 mph 24.2 mph N/A   Scattered Clouds
11:15 AM 50.0 °F - 37.0 °F 61% 30.11 in 10.0 mi SSE 13.8 mph 23.0 mph N/A   Clear
11:35 AM 50.7 °F - 37.4 °F 60% 30.10 in 10.0 mi South 13.8 mph 18.4 mph N/A   Scattered Clouds
11:55 AM 51.4 °F - 36.9 °F 58% 30.09 in 10.0 mi South 16.1 mph 26.5 mph N/A   Scattered Clouds
12:15 PM 50.4 °F - 37.0 °F 60% 30.08 in 10.0 mi South 13.8 mph 25.3 mph N/A   Clear
12:35 PM 50.7 °F - 37.9 °F 62% 30.07 in 10.0 mi South 10.4 mph 17.3 mph N/A   Clear
12:55 PM 50.9 °F - 38.3 °F 62% 30.05 in 10.0 mi South 10.4 mph 18.4 mph N/A   Scattered Clouds
1:15 PM 52.0 °F - 38.5 °F 60% 30.05 in 10.0 mi South 15.0 mph 19.6 mph N/A   Overcast
1:35 PM 52.0 °F - 37.4 °F 58% 30.06 in 10.0 mi South 18.4 mph 26.5 mph N/A   Mostly Cloudy
1:55 PM 52.0 °F - 37.9 °F 59% 30.06 in 10.0 mi South 16.1 mph 21.9 mph N/A   Mostly Cloudy
2:15 PM 52.0 °F - 38.7 °F 60% 30.05 in 10.0 mi South 12.7 mph - N/A   Overcast
2:35 PM 51.8 °F - 38.8 °F 61% 30.03 in 10.0 mi SSE 11.5 mph 18.4 mph N/A   Overcast
2:55 PM 54.3 °F - 39.9 °F 58% 30.03 in 10.0 mi SSE 9.2 mph - N/A   Overcast
3:15 PM 52.9 °F - 39.7 °F 61% 30.04 in 10.0 mi South 9.2 mph - N/A   Mostly Cloudy
3:35 PM 54.1 °F - 40.1 °F 59% 30.04 in 10.0 mi South 13.8 mph - N/A   Overcast
3:55 PM 53.6 °F - 39.6 °F 59% 30.05 in 10.0 mi South 16.1 mph 21.9 mph N/A   Overcast
4:15 PM 53.2 °F - 39.9 °F 61% 30.05 in 10.0 mi South 11.5 mph 19.6 mph N/A   Overcast
4:35 PM 52.9 °F - 40.3 °F 62% 30.06 in 10.0 mi South 9.2 mph 16.1 mph N/A   Overcast
4:55 PM 52.7 °F - 40.3 °F 63% 30.06 in 10.0 mi South 8.1 mph - N/A   Overcast
5:15 PM 52.3 °F - 41.0 °F 65% 30.07 in 10.0 mi South 8.1 mph - N/A   Overcast
5:35 PM 52.0 °F - 41.2 °F 67% 30.07 in 10.0 mi South 8.1 mph - N/A   Overcast
5:55 PM 51.8 °F - 41.2 °F 67% 30.08 in 10.0 mi South 6.9 mph - N/A   Overcast
6:15 PM 52.0 °F - 41.0 °F 66% 30.09 in 10.0 mi SSW 9.2 mph - N/A   Overcast
6:35 PM 52.2 °F - 41.2 °F 66% 30.10 in 10.0 mi SSW 13.8 mph - N/A   Overcast
6:55 PM 52.0 °F - 41.5 °F 68% 30.10 in 10.0 mi SW 10.4 mph - N/A   Overcast
7:15 PM 51.8 °F - 41.4 °F 68% 30.10 in 10.0 mi SSW 5.8 mph - N/A   Overcast
7:35 PM 51.3 °F - 41.9 °F 70% 30.10 in 10.0 mi SSW 5.8 mph - N/A   Overcast
7:55 PM 50.9 °F - 41.9 °F 71% 30.11 in 10.0 mi SSW 5.8 mph - N/A   Overcast
8:15 PM 51.3 °F - 41.9 °F 70% 30.11 in 10.0 mi SW 9.2 mph - N/A   Overcast
8:35 PM 51.1 °F - 43.2 °F 74% 30.12 in 10.0 mi SW 9.2 mph 17.3 mph N/A   Overcast
8:55 PM 50.9 °F - 43.3 °F 75% 30.12 in 10.0 mi SSW 8.1 mph - N/A   Overcast
9:15 PM 50.7 °F - 43.0 °F 75% 30.13 in 10.0 mi SSW 9.2 mph - N/A   Overcast
9:35 PM 50.5 °F - 43.3 °F 76% 30.14 in 10.0 mi SSW 9.2 mph - N/A   Overcast
9:55 PM 50.4 °F - 43.7 °F 78% 30.14 in 10.0 mi SSW 6.9 mph - N/A   Overcast
10:15 PM 50.0 °F - 43.9 °F 79% 30.14 in 10.0 mi SSW 5.8 mph - N/A   Overcast
10:35 PM 50.0 °F - 43.9 °F 79% 30.14 in 10.0 mi SSW 5.8 mph - N/A   Overcast
10:55 PM 50.0 °F - 44.1 °F 80% 30.14 in 10.0 mi SSW 5.8 mph - N/A   Overcast
11:15 PM 49.8 °F - 44.1 °F 81% 30.14 in 10.0 mi SW 5.8 mph - N/A   Overcast
11:35 PM 49.6 °F - 43.9 °F 81% 30.15 in 10.0 mi SSW 4.6 mph - N/A   Overcast
11:55 PM 49.6 °F - 43.9 °F 81% 30.16 in 10.0 mi SW 4.6 mph - N/A   Overcast